Tracking 20083 objects as of 12-Dec-2019
HD Live streaming from Space Station
objects crossing your sky now

GALAXY 3R

Track GALAXY 3R now!
GALAXY 3R is classified as:


NORAD ID: 23741
Int'l Code: 1995-069A
Perigee: 35,792.9 km
Apogee: 35,825.8 km
Inclination: 11.0 °
Period: 1,436.9 minutes
Semi major axis: 42180 km
RCS: 12.3125 m2 (large)
Launch date: December 15, 1995
Source: United States (US)
Launch site: AIR FORCE EASTERN TEST RANGE (AFETR)

24 C-band, 16 Ku-band; North America, Caribbean; 140 television channels.
aabbcc
Your satellite tracking list
Your tracking list is empty




NASA's NSSDC Master Catalog

Two Line Element Set (TLE):
1 23741U 95069A   19345.66345413 -.00000067  00000-0  00000+0 0  9993
2 23741  11.0365  32.5454 0003899 314.7020 223.7280  1.00216031 87940
Source of the keplerian elements: AFSPC